Regional Weather Roundup
Issued by NWS Little Rock, AR

Home | Current Version | Previous Version | Text Only | Print | Product List | Glossary On
Versions: 1 2 3 4 5 6 7 8 9 10 11 12 13 14 15 16 17 18 19 20 21 22 23 24 25 26 27 28 29 30 31 32 33 34 35 36 37 38 39 40 41 42 43 44 45 46 47 48 49 50
000
ASUS44 KLZK 211305
RWRLZK

WEATHER ROUNDUP FOR ARKANSAS
NATIONAL WEATHER SERVICE LITTLE ROCK AR
800 AM CDT TUE APR 21 2015

NOTE: "FAIR" INDICATES FEW OR NO CLOUDS BELOW 12,000 FEET WITH NO
SIGNIFICANT WEATHER AND/OR OBSTRUCTIONS TO VISIBILITY.

ARZ001-003-010-029-211400-
NORTHWEST ARKANSAS

CITY           SKY/WX    TMP DP  RH WIND       PRES   REMARKS
FAYETTEVILLE   PTSUNNY   50  39  66 S6        29.99R
FORT SMITH     PTSUNNY   48  43  82 CALM      30.00R
HARRISON       SUNNY     50  38  63 S3        29.97R
BENTONVILLE    PTSUNNY   48  36  61 SW6       29.98R
ROGERS         CLOUDY    50  38  63 SW5       29.98R
SILOAM SPGS    CLOUDY    48  36  61 S6        30.00R
HIGHFILL       CLOUDY    50  37  61 SW7       29.97R
SPRINGDALE     PTSUNNY   50  39  66 CALM      30.00R
$$

ARZ004-005-016-211400-
NORTH CENTRAL ARKANSAS

CITY           SKY/WX    TMP DP  RH WIND       PRES   REMARKS
BATESVILLE     SUNNY     52  37  58 W3        29.98F
FLIPPIN        SUNNY     48 N/A N/A CALM      29.95R
MTN HOME       SUNNY     48  37  65 VRB5      29.96R
$$

ARZ040-041-211400-
WEST CENTRAL ARKANSAS

CITY           SKY/WX    TMP DP  RH WIND       PRES   REMARKS
MENA           PTSUNNY   48  45  87 CALM      30.03S
MOUNT IDA      PTSUNNY   42  39  89 CALM      30.00S
$$

ARZ009-017-025-026-028-211400-
NORTHEAST ARKANSAS

CITY           SKY/WX    TMP DP  RH WIND       PRES   REMARKS
CORNING          N/A     52  41  66 SW10      29.97S
JONESBORO      SUNNY     50  43  77 SW8       29.99S
NEWPORT        SUNNY     52  42  68 SW7       30.00F
WALNUT RIDGE   SUNNY     52  39  62 SW9       29.96F
BLYTHEVILLE    SUNNY     51  42  71 SW9       29.99S
NW BLYTHEVILLE MOSUNNY   54  43  66 SW9       29.99
$$

ARZ022-023-033-042-044-211400-
CENTRAL ARKANSAS

CITY           SKY/WX    TMP DP  RH WIND       PRES   REMARKS
LITTLE ROCK    PTSUNNY   51  41  68 SW5       30.01F
N LITTLE ROCK    N/A     55  40  57 SW6       30.01F
JACKSONVILLE   PTSUNNY   47  43  84 CALM      30.00S
SEARCY         MOSUNNY   48  42  80 CALM      30.02F
HOT SPRINGS    PTSUNNY   45  42  89 CALM      30.03S
RUSSELLVILLE   MOSUNNY   46  43  89 CALM      30.00S
CLINTON        FAIR      41  39  93 CALM      30.03R
$$

ARZ036-211400-
EAST ARKANSAS

CITY           SKY/WX    TMP DP  RH WIND       PRES   REMARKS
WEST MEMPHIS   SUNNY     52  44  74 S7        30.01R
$$

ARZ050-053-066-070-073-211400-
SOUTHWEST ARKANSAS

CITY           SKY/WX    TMP DP  RH WIND       PRES   REMARKS
CAMDEN         SUNNY     48  45  87 CALM      30.06S
TEXARKANA      SUNNY     51  47  86 E3        30.04R
EL DORADO      SUNNY     48  45  89 CALM      30.06R
DE QUEEN       MOSUNNY   47  44  90 CALM      30.03R
$$

ARZ056-057-069-211400-
SOUTHEAST ARKANSAS

CITY           SKY/WX    TMP DP  RH WIND       PRES   REMARKS
PINE BLUFF     SUNNY     50  42  74 S8        30.04R
STUTTGART      SUNNY     54  43  66 S7        30.03S
MONTICELLO     SUNNY     55  45  68 CALM      30.05R

$$




USA.gov is the U.S. government's official web portal to all federal, state and local government web resources and services.